Location: *
(33.3200°N, 8.3381°W)
Time: 16:45:02
(UTC+00:00)

NOSS 3-4 (C) - Pass Details

Date: 09 April 2020
Orbit: 897 x 1316 km, 63.4° (Epoch: 21 May)

Event Time Altitude Azimuth Distance (km) Brightness Sun altitude
Rises 21:17:39 0° 324° (NW) 3,947 7.7 -27.6°
Reaches altitude 10° 21:20:18 10° 319° (NW) 3,044 7.0 -28.1°
Maximum altitude 21:27:24 54° 245° (WSW) 1,461 4.4 -29.3°
Enters shadow 21:30:06 38° 193° (SSW) 1,809 4.6 -29.8°
